map of UAK home
UAK - Airport
Location
City:  Narsarsuaq, Kujalleq, Greenland
ICAO:BGBW
IATA:UAK

Details
Type:Airport (Aerodrome, Airfield)
Latitude:6109'39"N (61.160719)
Longitude:4525'32"W (-45.425674)
Elevation:112 ft (34 m)
Variation:22.61W (WMM2015 magnetic declination)
0.30 annual change
Runways:1
Longest:6004 × 148 ft (1830 × 45 m), paved

Time
Time Zone:UTC-3 (DST-2)
Local Time:

Weather
METAR:BGBW 102250Z AUTO 08021G31KT 9999NDV FEW100/// BKN110/// 06/M13 Q0984

Related Locations
Nearby:
Farthest:YWKS: 11638 mi / 18730 km
Wilkins Runway (Casey), Upper Peterson Glacier, AQ

Find:

   beyond  
but within

Other Information
Maps:
NOTAMs:
Links:
Sources:

  
  • flag of Greenland
  

Sectional Chart

Flight Planning
at skyvector.com

Satellite Image

Google Maps Satellite view

 

Copyright © 2004-2018 Karl L. Swartz. All rights reserved.
The Great Circle Mapper name and logo are trademarks of the Great Circle Mapper.
All other trademarks mentioned herein belong to their respective owners.
Please see credits for attibutions and further copyright information.

  Follow gcmap on Facebook Follow gcmap on Twitter Follow gcmap on Google+ GCmap on LinkedIn

hCard Microformat

Geo Microformat